| time (UTC) | temp C | wind direction | speed KPH | gust KPH | rain 1hr cm | rain 24hr cm | rain mn cm | humidity % | barometer mb |
| 20260509201953 | 28 | 118 | 0.0 | 0.0 | 0.00 | 3.89 | 3.89 | 70 | 4236.6 |
| 20260509201454 | 28 | 88 | 0.0 | 0.0 | 0.00 | 3.89 | 3.89 | 66 | 4236.3 |
| 20260509200951 | 30 | 117 | 3.2 | 3.2 | 0.00 | 3.89 | 3.89 | 64 | 4236.7 |
| 20260509200446 | 30 | 115 | 0.0 | 0.0 | 0.00 | 3.89 | 3.89 | 60 | 4236.7 |
| 20260509195943 | 30 | 113 | 0.0 | 1.6 | 0.00 | 3.89 | 3.89 | 57 | 4236.7 |
| 20260509195439 | 30 | 68 | 0.0 | 0.0 | 0.00 | 3.89 | 3.89 | 57 | 4236.8 |
| 20260509194938 | 30 | 78 | 0.0 | 0.0 | 0.00 | 3.89 | 3.89 | 56 | 4237.0 |
| 20260509194434 | 30 | 61 | 1.6 | 3.2 | 0.00 | 3.89 | 3.89 | 59 | 4236.6 |
| 20260509193931 | 31 | 78 | 1.6 | 1.6 | 0.00 | 3.89 | 3.89 | 54 | 4236.9 |
| 20260509193430 | 30 | 134 | 1.6 | 1.6 | 0.00 | 3.89 | 3.89 | 55 | 4237.0 |
| 20260509192927 | 29 | 106 | 0.0 | 0.0 | 0.00 | 3.89 | 3.89 | 61 | 4237.0 |
| 20260509192423 | 30 | 301 | 3.2 | 3.2 | 0.00 | 3.89 | 3.89 | 56 | 4237.2 |
| 20260509191918 | 30 | 134 | 0.0 | 0.0 | 0.00 | 3.89 | 3.89 | 58 | 4237.2 |
| 20260509191414 | 30 | 353 | 0.0 | 1.6 | 0.00 | 3.89 | 3.89 | 57 | 4237.5 |
| 20260509190910 | 30 | 171 | 0.0 | 0.0 | 0.00 | 3.89 | 3.89 | 60 | 4237.2 |
| 20260509190408 | 28 | 143 | 0.0 | 0.0 | 0.00 | 3.89 | 3.89 | 64 | 4237.4 |
| 20260509185905 | 27 | 99 | 1.6 | 1.6 | 0.00 | 3.89 | 3.89 | 70 | 4237.2 |
| 20260509185402 | 27 | 107 | 0.0 | 0.0 | 0.00 | 3.89 | 3.89 | 74 | 4237.4 |
| 20260509184859 | 27 | 100 | 0.0 | 0.0 | 0.00 | 3.89 | 3.89 | 72 | 4237.6 |
| 20260509184355 | 27 | 113 | 1.6 | 1.6 | 0.00 | 3.89 | 3.89 | 72 | 4237.4 |
| 20260509183853 | 27 | 64 | 1.6 | 3.2 | 0.00 | 3.89 | 3.89 | 73 | 4237.2 |
| 20260509183347 | 27 | 113 | 0.0 | 0.0 | 0.00 | 3.89 | 3.89 | 70 | 4237.6 |
| 20260509182843 | 29 | 107 | 1.6 | 3.2 | 0.00 | 3.89 | 3.89 | 67 | 4237.5 |
| 20260509182341 | 30 | 110 | 0.0 | 0.0 | 0.00 | 3.89 | 3.89 | 66 | 4237.6 |
| 20260509181838 | 30 | 71 | 1.6 | 1.6 | 0.00 | 3.89 | 3.89 | 61 | 4237.4 |
| 20260509181335 | 31 | 93 | 0.0 | 1.6 | 0.00 | 3.89 | 3.89 | 58 | 4237.5 |
| 20260509180833 | 31 | 116 | 0.0 | 1.6 | 0.00 | 3.89 | 3.89 | 55 | 4238.0 |
| 20260509180328 | 30 | 123 | 0.0 | 1.6 | 0.00 | 3.89 | 3.89 | 63 | 4237.9 |
| 20260509175826 | 30 | 137 | 0.0 | 0.0 | 0.00 | 3.89 | 3.89 | 64 | 4237.8 |
| 20260509175322 | 31 | 73 | 0.0 | 1.6 | 0.00 | 3.89 | 3.89 | 62 | 4237.8 |
| 20260509174818 | 31 | 187 | 4.8 | 4.8 | 0.00 | 3.89 | 3.89 | 63 | 4237.7 |
| 20260509174313 | 30 | 91 | 1.6 | 1.6 | 0.00 | 3.89 | 3.89 | 64 | 4237.9 |
| 20260509173810 | 28 | 74 | 3.2 | 3.2 | 0.00 | 3.89 | 3.89 | 67 | 4238.0 |
| 20260509173305 | 28 | 60 | 4.8 | 4.8 | 0.00 | 3.89 | 3.89 | 65 | 4238.1 |
| 20260509172801 | 29 | 33 | 4.8 | 4.8 | 0.00 | 3.89 | 3.89 | 67 | 4238.3 |
| 20260509172258 | 28 | 96 | 0.0 | 1.6 | 0.00 | 3.89 | 3.89 | 68 | 4238.0 |
| 20260509171754 | 28 | 142 | 1.6 | 1.6 | 0.00 | 3.89 | 3.89 | 73 | 4238.1 |
| 20260509171250 | 27 | 86 | 0.0 | 0.0 | 0.00 | 3.89 | 3.89 | 77 | 4238.0 |
| 20260509170747 | 27 | 91 | 1.6 | 1.6 | 0.00 | 3.89 | 3.89 | 73 | 4238.2 |
| 20260509170243 | 26 | 148 | 1.6 | 1.6 | 0.00 | 3.89 | 3.89 | 78 | 4238.1 |
| 20260509165742 | 25 | 133 | 0.0 | 1.6 | 0.00 | 3.89 | 3.89 | 83 | 4238.2 |
| 20260509165237 | 25 | 124 | 0.0 | 1.6 | 0.00 | 3.89 | 3.89 | 89 | 4238.2 |
| 20260509164733 | 25 | 80 | 1.6 | 1.6 | 0.00 | 3.89 | 3.89 | 89 | 4238.1 |
| 20260509164229 | 23 | 118 | 0.0 | 1.6 | 0.00 | 3.89 | 3.89 | 89 | 4238.2 |
| 20260509163727 | 24 | 158 | 0.0 | 0.0 | 0.00 | 3.89 | 3.89 | 89 | 4238.6 |
| 20260509163223 | 24 | 160 | 0.0 | 0.0 | 0.00 | 3.89 | 3.89 | 89 | 4238.1 |
| 20260509162720 | 24 | 132 | 0.0 | 0.0 | 0.00 | 3.89 | 3.89 | 89 | 4238.4 |
| 20260509162216 | 23 | 127 | 0.0 | 0.0 | 0.00 | 3.89 | 3.89 | 89 | 4238.2 |
| 20260509161711 | 23 | 116 | 1.6 | 1.6 | 0.00 | 3.89 | 3.89 | 89 | 4238.1 |
| 20260509161208 | 24 | 88 | 0.0 | 1.6 | 0.00 | 3.89 | 3.89 | 89 | 4238.2 |
| 20260509160703 | 23 | 54 | 0.0 | 1.6 | 0.00 | 3.89 | 3.89 | 89 | 4238.2 |
| 20260509160159 | 23 | 7 | 0.0 | 0.0 | 0.00 | 3.89 | 3.89 | 89 | 4238.2 |
| 20260509155655 | 24 | 87 | 1.6 | 1.6 | 0.00 | 3.89 | 3.89 | 89 | 4238.3 |
| 20260509155151 | 23 | 134 | 0.0 | 0.0 | 0.00 | 3.89 | 3.89 | 89 | 4238.3 |
| 20260509154647 | 23 | 121 | 0.0 | 0.0 | 0.00 | 3.89 | 3.89 | 89 | 4238.2 |
| 20260509154145 | 23 | 140 | 0.0 | 0.0 | 0.00 | 3.89 | 3.89 | 89 | 4237.9 |
| 20260509153641 | 23 | 160 | 0.0 | 0.0 | 0.00 | 3.89 | 3.89 | 89 | 4238.0 |
| 20260509153138 | 22 | 137 | 0.0 | 0.0 | 0.00 | 3.89 | 3.89 | 89 | 4238.0 |
| 20260509152634 | 22 | 129 | 0.0 | 0.0 | 0.00 | 3.89 | 3.89 | 89 | 4238.0 |
| 20260509152131 | 23 | 99 | 0.0 | 0.0 | 0.00 | 3.89 | 3.89 | 89 | 4238.1 |
| 20260509151628 | 23 | 113 | 0.0 | 0.0 | 0.00 | 3.89 | 3.89 | 89 | 4238.2 |
| 20260509151125 | 22 | 107 | 0.0 | 0.0 | 0.00 | 3.89 | 3.89 | 89 | 4237.7 |
| 20260509150623 | 22 | 121 | 0.0 | 0.0 | 0.00 | 3.89 | 3.89 | 89 | 4237.9 |
| 20260509150121 | 22 | 120 | 0.0 | 0.0 | 0.00 | 3.89 | 3.89 | 89 | 4237.8 |
| 20260509145617 | 22 | 126 | 0.0 | 0.0 | 0.00 | 3.89 | 3.89 | 89 | 4237.9 |
| 20260509145112 | 22 | 104 | 0.0 | 0.0 | 0.00 | 3.89 | 3.89 | 89 | 4238.2 |
| 20260509144609 | 22 | 169 | 0.0 | 0.0 | 0.00 | 3.89 | 3.89 | 89 | 4238.1 |
| 20260509144106 | 22 | 126 | 0.0 | 0.0 | 0.00 | 3.89 | 3.89 | 89 | 4238.1 |
| 20260509143603 | 22 | 112 | 0.0 | 0.0 | 0.00 | 3.89 | 3.89 | 89 | 4238.1 |
| 20260509143101 | 22 | 123 | 0.0 | 0.0 | 0.00 | 3.89 | 3.89 | 89 | 4237.8 |
| 20260509142556 | 22 | 148 | 0.0 | 0.0 | 0.00 | 3.89 | 3.89 | 89 | 4238.0 |
| 20260509142052 | 22 | 148 | 0.0 | 0.0 | 0.00 | 3.89 | 3.89 | 89 | 4238.2 |
| 20260509141549 | 22 | 157 | 0.0 | 0.0 | 0.00 | 3.89 | 3.89 | 89 | 4238.1 |
| 20260509141045 | 22 | 120 | 0.0 | 0.0 | 0.00 | 3.89 | 3.89 | 89 | 4238.1 |
| 20260509140542 | 22 | 134 | 0.0 | 0.0 | 0.00 | 3.89 | 3.89 | 89 | 4238.4 |
| 20260509140040 | 21 | 144 | 0.0 | 0.0 | 0.00 | 3.89 | 3.89 | 89 | 4238.5 |
| 20260509135537 | 21 | 139 | 0.0 | 0.0 | 0.00 | 3.89 | 3.89 | 89 | 4238.2 |
| 20260509135035 | 21 | 150 | 1.6 | 1.6 | 0.00 | 3.89 | 3.89 | 89 | 4238.4 |
| 20260509134532 | 21 | 186 | 0.0 | 0.0 | 0.00 | 3.89 | 3.89 | 89 | 4238.7 |
| 20260509134029 | 21 | 148 | 0.0 | 0.0 | 0.00 | 3.89 | 3.89 | 89 | 4238.8 |
| 20260509133526 | 21 | 135 | 0.0 | 0.0 | 0.00 | 3.89 | 3.89 | 89 | 4238.8 |
| 20260509133024 | 20 | 136 | 0.0 | 0.0 | 0.00 | 3.89 | 3.89 | 89 | 4238.8 |
| 20260509132522 | 20 | 136 | 0.0 | 0.0 | 0.00 | 3.89 | 3.89 | 89 | 4238.9 |
| 20260509132020 | 20 | 150 | 0.0 | 0.0 | 0.00 | 3.89 | 3.89 | 89 | 4238.8 |
| 20260509131515 | 20 | 145 | 0.0 | 0.0 | 0.00 | 3.89 | 3.89 | 89 | 4238.8 |
| 20260509131013 | 20 | 144 | 0.0 | 0.0 | 0.00 | 3.89 | 3.89 | 89 | 4239.1 |
| 20260509130508 | 20 | 152 | 0.0 | 0.0 | 0.00 | 3.89 | 3.89 | 89 | 4238.7 |
| 20260509130005 | 20 | 114 | 0.0 | 0.0 | 0.00 | 3.89 | 3.89 | 89 | 4238.6 |
| 20260509125501 | 20 | 121 | 0.0 | 0.0 | 0.00 | 3.89 | 3.89 | 89 | 4238.7 |
| 20260509124957 | 20 | 114 | 0.0 | 0.0 | 0.00 | 3.89 | 3.89 | 89 | 4238.6 |
| 20260509124454 | 20 | 132 | 0.0 | 0.0 | 0.00 | 3.89 | 3.89 | 89 | 4238.7 |
| 20260509123952 | 20 | 135 | 0.0 | 0.0 | 0.00 | 3.89 | 3.89 | 89 | 4238.6 |
| 20260509123449 | 20 | 131 | 0.0 | 0.0 | 0.00 | 3.89 | 3.89 | 89 | 4238.8 |
| 20260509122945 | 20 | 138 | 0.0 | 0.0 | 0.00 | 3.89 | 3.89 | 89 | 4238.7 |
| 20260509122442 | 20 | 138 | 0.0 | 0.0 | 0.00 | 3.89 | 3.89 | 89 | 4238.7 |
| 20260509121939 | 20 | 146 | 0.0 | 0.0 | 0.00 | 3.89 | 3.89 | 89 | 4238.5 |
| 20260509121436 | 20 | 121 | 0.0 | 0.0 | 0.00 | 3.89 | 3.89 | 89 | 4238.3 |
| 20260509120934 | 20 | 123 | 0.0 | 0.0 | 0.00 | 3.89 | 3.89 | 89 | 4238.1 |
| 20260509120432 | 20 | 99 | 0.0 | 0.0 | 0.00 | 3.89 | 3.89 | 89 | 4238.4 |
| 20260509115929 | 20 | 122 | 0.0 | 1.6 | 0.00 | 3.89 | 3.89 | 89 | 4238.2 |
| 20260509115426 | 20 | 117 | 0.0 | 0.0 | 0.00 | 3.89 | 3.89 | 89 | 4238.2 |
| 20260509114924 | 20 | 126 | 0.0 | 0.0 | 0.00 | 3.89 | 3.89 | 89 | 4238.3 |
| 20260509114422 | 20 | 109 | 0.0 | 0.0 | 0.00 | 3.89 | 3.89 | 89 | 4237.7 |
| 20260509113922 | 20 | 122 | 0.0 | 0.0 | 0.00 | 3.89 | 3.89 | 89 | 4237.6 |
| 20260509113418 | 20 | 104 | 0.0 | 0.0 | 0.00 | 3.89 | 3.89 | 89 | 4237.5 |
| 20260509112915 | 20 | 132 | 0.0 | 0.0 | 0.00 | 3.89 | 3.89 | 89 | 4237.3 |
| 20260509112412 | 20 | 133 | 0.0 | 0.0 | 0.00 | 3.89 | 3.89 | 89 | 4237.2 |
| 20260509111909 | 20 | 124 | 0.0 | 0.0 | 0.00 | 3.89 | 3.89 | 89 | 4237.0 |
| 20260509111406 | 20 | 129 | 0.0 | 0.0 | 0.00 | 3.89 | 3.89 | 89 | 4237.0 |
| 20260509110904 | 19 | 140 | 0.0 | 0.0 | 0.00 | 3.89 | 3.89 | 89 | 4236.8 |
| 20260509110359 | 19 | 131 | 0.0 | 0.0 | 0.00 | 3.89 | 3.89 | 89 | 4236.7 |
| 20260509105858 | 19 | 108 | 0.0 | 0.0 | 0.00 | 3.89 | 3.89 | 89 | 4236.5 |
| 20260509105356 | 19 | 112 | 0.0 | 0.0 | 0.00 | 3.89 | 3.89 | 89 | 4236.4 |
| 20260509104852 | 19 | 121 | 0.0 | 0.0 | 0.00 | 3.89 | 3.89 | 89 | 4236.6 |
| 20260509104348 | 19 | 120 | 0.0 | 0.0 | 0.00 | 3.89 | 3.89 | 89 | 4236.6 |
| 20260509103846 | 18 | 128 | 0.0 | 0.0 | 0.00 | 3.89 | 3.89 | 89 | 4236.6 |
| 20260509103344 | 18 | 120 | 0.0 | 0.0 | 0.00 | 3.89 | 3.89 | 89 | 4236.6 |
| 20260509102843 | 18 | 139 | 0.0 | 0.0 | 0.00 | 3.89 | 3.89 | 89 | 4236.7 |
| 20260509102339 | 18 | 131 | 0.0 | 0.0 | 0.00 | 3.89 | 3.89 | 89 | 4236.6 |
| 20260509101835 | 18 | 137 | 0.0 | 0.0 | 0.00 | 3.89 | 3.89 | 89 | 4236.8 |
| 20260509101331 | 18 | 137 | 0.0 | 0.0 | 0.00 | 3.89 | 3.89 | 89 | 4236.6 |
| 20260509100830 | 18 | 133 | 0.0 | 0.0 | 0.00 | 3.89 | 3.89 | 89 | 4236.9 |
| 20260509100326 | 18 | 144 | 0.0 | 0.0 | 0.00 | 3.89 | 3.89 | 89 | 4236.6 |
| 20260509095823 | 18 | 153 | 0.0 | 0.0 | 0.00 | 3.89 | 3.89 | 89 | 4237.0 |
| 20260509095320 | 18 | 169 | 0.0 | 0.0 | 0.00 | 3.89 | 3.89 | 89 | 4236.9 |
| 20260509094817 | 18 | 159 | 0.0 | 0.0 | 0.00 | 3.89 | 3.89 | 89 | 4237.1 |
| 20260509094314 | 18 | 160 | 0.0 | 0.0 | 0.00 | 3.89 | 3.89 | 89 | 4236.9 |
| 20260509093812 | 18 | 152 | 0.0 | 0.0 | 0.00 | 3.89 | 3.89 | 89 | 4237.0 |
| 20260509093309 | 18 | 152 | 0.0 | 0.0 | 0.00 | 3.89 | 3.89 | 89 | 4237.0 |
| 20260509092807 | 18 | 170 | 0.0 | 0.0 | 0.00 | 3.89 | 3.89 | 89 | 4236.9 |
| 20260509092306 | 18 | 149 | 0.0 | 0.0 | 0.00 | 3.89 | 3.89 | 89 | 4236.8 |
| 20260509091803 | 17 | 152 | 0.0 | 0.0 | 0.00 | 3.89 | 3.89 | 89 | 4237.1 |
| 20260509091259 | 17 | 152 | 0.0 | 0.0 | 0.00 | 3.89 | 3.89 | 89 | 4237.1 |
| 20260509090756 | 17 | 146 | 0.0 | 0.0 | 0.00 | 3.89 | 3.89 | 89 | 4236.8 |
| 20260509090253 | 17 | 140 | 0.0 | 0.0 | 0.00 | 3.89 | 3.89 | 89 | 4236.9 |
| 20260509085751 | 17 | 104 | 0.0 | 0.0 | 0.00 | 3.89 | 3.89 | 89 | 4237.0 |
| 20260509085248 | 17 | 152 | 0.0 | 0.0 | 0.00 | 3.89 | 3.89 | 89 | 4237.1 |
| 20260509084744 | 17 | 162 | 0.0 | 0.0 | 0.00 | 3.89 | 3.89 | 89 | 4237.2 |
| 20260509084241 | 17 | 164 | 0.0 | 0.0 | 0.00 | 3.89 | 3.89 | 89 | 4237.2 |
| 20260509083739 | 17 | 123 | 0.0 | 0.0 | 0.00 | 3.89 | 3.89 | 89 | 4237.4 |
| 20260509083236 | 17 | 131 | 0.0 | 0.0 | 0.00 | 3.89 | 3.89 | 89 | 4237.4 |
| 20260509082732 | 17 | 153 | 0.0 | 1.6 | 0.00 | 3.89 | 3.89 | 89 | 4237.9 |
| 20260509082229 | 17 | 133 | 0.0 | 0.0 | 0.00 | 3.89 | 3.89 | 89 | 4237.8 |
| 20260509081726 | 17 | 118 | 0.0 | 0.0 | 0.00 | 3.89 | 3.89 | 89 | 4237.7 |
| 20260509081224 | 17 | 118 | 0.0 | 0.0 | 0.00 | 3.89 | 3.89 | 89 | 4237.8 |
| 20260509080721 | 17 | 121 | 0.0 | 0.0 | 0.00 | 3.89 | 3.89 | 89 | 4237.6 |
| 20260509080219 | 17 | 122 | 0.0 | 0.0 | 0.00 | 3.89 | 3.89 | 89 | 4237.6 |
| 20260509075717 | 17 | 160 | 0.0 | 0.0 | 0.00 | 3.89 | 3.89 | 89 | 4237.5 |
| 20260509075214 | 17 | 150 | 0.0 | 0.0 | 0.00 | 3.89 | 3.89 | 89 | 4237.6 |
| 20260509074711 | 17 | 161 | 0.0 | 0.0 | 0.00 | 3.89 | 3.89 | 89 | 4237.8 |
| 20260509074209 | 17 | 193 | 0.0 | 0.0 | 0.00 | 3.89 | 3.89 | 89 | 4237.9 |
| 20260509073705 | 17 | 144 | 0.0 | 0.0 | 0.00 | 3.89 | 3.89 | 89 | 4237.7 |
| 20260509073201 | 17 | 104 | 1.6 | 1.6 | 0.00 | 3.89 | 3.89 | 89 | 4237.8 |
| 20260509072658 | 17 | 87 | 0.0 | 0.0 | 0.00 | 3.89 | 3.89 | 89 | 4238.0 |
| 20260509072155 | 17 | 164 | 0.0 | 0.0 | 0.00 | 3.89 | 3.89 | 89 | 4238.1 |
| 20260509071651 | 17 | 159 | 0.0 | 0.0 | 0.00 | 3.89 | 3.89 | 89 | 4238.0 |
| 20260509071148 | 17 | 150 | 0.0 | 0.0 | 0.00 | 3.89 | 3.89 | 89 | 4237.9 |
| 20260509070645 | 17 | 128 | 0.0 | 0.0 | 0.00 | 3.89 | 3.89 | 89 | 4237.8 |
| 20260509070141 | 17 | 150 | 0.0 | 0.0 | 0.00 | 3.89 | 3.89 | 89 | 4237.9 |
| 20260509065637 | 17 | 164 | 0.0 | 0.0 | 0.00 | 3.89 | 3.89 | 89 | 4238.4 |
| 20260509065134 | 17 | 115 | 0.0 | 0.0 | 0.00 | 3.89 | 3.89 | 89 | 4238.7 |
| 20260509064631 | 17 | 156 | 0.0 | 0.0 | 0.00 | 3.89 | 3.89 | 89 | 4238.8 |
| 20260509064129 | 17 | 117 | 0.0 | 0.0 | 0.00 | 3.89 | 3.89 | 89 | 4238.8 |
| 20260509063626 | 17 | 114 | 0.0 | 0.0 | 0.00 | 3.89 | 3.89 | 89 | 4238.8 |
| 20260509063122 | 17 | 145 | 0.0 | 0.0 | 0.00 | 3.89 | 3.89 | 89 | 4238.4 |
| 20260509062620 | 17 | 116 | 0.0 | 0.0 | 0.00 | 3.89 | 3.89 | 89 | 4238.6 |
| 20260509062116 | 17 | 71 | 3.2 | 3.2 | 0.00 | 3.89 | 3.89 | 89 | 4238.5 |
| 20260509061613 | 17 | 103 | 1.6 | 1.6 | 0.00 | 3.89 | 3.89 | 89 | 4238.1 |
| 20260509061111 | 17 | 48 | 1.6 | 1.6 | 0.00 | 3.89 | 3.89 | 89 | 4238.4 |
| 20260509060608 | 17 | 127 | 0.0 | 0.0 | 0.00 | 3.89 | 3.89 | 89 | 4238.4 |
| 20260509060104 | 17 | 119 | 0.0 | 0.0 | 0.00 | 3.89 | 3.89 | 89 | 4238.2 |
| 20260509055559 | 17 | 191 | 1.6 | 1.6 | 0.00 | 3.89 | 3.89 | 89 | 4238.1 |
| 20260509055055 | 16 | 184 | 1.6 | 1.6 | 0.00 | 3.89 | 3.89 | 89 | 4237.9 |
| 20260509054552 | 16 | 194 | 1.6 | 1.6 | 0.18 | 3.89 | 3.89 | 89 | 4237.9 |
| 20260509054050 | 16 | 185 | 1.6 | 3.2 | 0.30 | 3.89 | 3.89 | 89 | 4238.3 |
| 20260509053549 | 16 | 187 | 0.0 | 0.0 | 1.50 | 3.86 | 3.86 | 89 | 4238.2 |
| 20260509053045 | 16 | 152 | 4.8 | 4.8 | 4.32 | 3.84 | 3.84 | 89 | 4238.3 |
| 20260509052543 | 16 | 190 | 1.6 | 3.2 | 8.23 | 3.61 | 3.61 | 89 | 4238.9 |
| 20260509052041 | 16 | 168 | 6.4 | 11.3 | 10.92 | 3.12 | 3.12 | 89 | 4239.7 |
| 20260509051538 | 17 | 179 | 4.8 | 4.8 | 10.97 | 2.29 | 2.29 | 87 | 4239.8 |
| 20260509051035 | 19 | 303 | 8.0 | 12.9 | 7.92 | 1.32 | 1.32 | 88 | 4240.7 |
| 20260509050532 | 21 | 173 | 3.2 | 4.8 | 1.68 | 0.28 | 0.28 | 87 | 4240.5 |
| 20260509050028 | 21 | 294 | 3.2 | 3.2 | 0.00 | 0.00 | 0.00 | 82 | 4239.5 |
| 20260509045526 | 22 | 223 | 3.2 | 3.2 | 0.00 | 0.00 | 0.00 | 80 | 4239.1 |
| 20260509045023 | 22 | 196 | 1.6 | 1.6 | 0.00 | 0.00 | 0.00 | 79 | 4238.7 |
| 20260509044521 | 21 | 220 | 1.6 | 1.6 | 0.00 | 0.00 | 0.00 | 77 | 4239.2 |
| 20260509044018 | 21 | 57 | 1.6 | 3.2 | 0.00 | 0.00 | 0.00 | 76 | 4239.4 |
| 20260509043514 | 21 | 77 | 1.6 | 1.6 | 0.00 | 0.00 | 0.00 | 78 | 4239.3 |
| 20260509043010 | 21 | 89 | 3.2 | 3.2 | 0.00 | 0.00 | 0.00 | 78 | 4239.0 |
| 20260509042506 | 21 | 124 | 0.0 | 0.0 | 0.00 | 0.00 | 0.00 | 78 | 4238.6 |
| 20260509042002 | 21 | 124 | 0.0 | 0.0 | 0.00 | 0.00 | 0.00 | 78 | 4238.5 |
| 20260509041459 | 21 | 147 | 0.0 | 0.0 | 0.00 | 0.00 | 0.00 | 78 | 4238.4 |
| 20260509040957 | 21 | 131 | 0.0 | 0.0 | 0.00 | 0.00 | 0.00 | 78 | 4238.2 |
| 20260509040455 | 21 | 117 | 0.0 | 0.0 | 0.00 | 0.00 | 0.00 | 78 | 4238.4 |
| 20260509035951 | 21 | 103 | 0.0 | 0.0 | 0.00 | 0.00 | 0.00 | 78 | 4238.2 |
| 20260509035448 | 21 | 100 | 0.0 | 0.0 | 0.00 | 0.00 | 0.00 | 77 | 4238.4 |
| 20260509034945 | 21 | 119 | 0.0 | 0.0 | 0.00 | 0.00 | 0.00 | 78 | 4238.2 |
| 20260509034443 | 21 | 117 | 0.0 | 0.0 | 0.00 | 0.00 | 0.00 | 77 | 4238.1 |
| 20260509033940 | 21 | 105 | 0.0 | 0.0 | 0.00 | 0.00 | 0.00 | 78 | 4238.0 |
| 20260509033437 | 21 | 106 | 0.0 | 0.0 | 0.00 | 0.00 | 0.00 | 78 | 4237.9 |
| 20260509032933 | 21 | 114 | 0.0 | 0.0 | 0.00 | 0.00 | 0.00 | 78 | 4237.8 |
| 20260509032431 | 21 | 96 | 0.0 | 0.0 | 0.00 | 0.00 | 0.00 | 77 | 4237.7 |
| 20260509031928 | 21 | 115 | 0.0 | 0.0 | 0.00 | 0.00 | 0.00 | 76 | 4237.6 |
| 20260509031426 | 21 | 137 | 0.0 | 0.0 | 0.00 | 0.00 | 0.00 | 76 | 4237.7 |
| 20260509030923 | 21 | 136 | 0.0 | 0.0 | 0.00 | 0.00 | 0.00 | 76 | 4237.3 |
| 20260509030421 | 21 | 141 | 0.0 | 0.0 | 0.00 | 0.00 | 0.00 | 76 | 4237.3 |
| 20260509025918 | 21 | 146 | 0.0 | 0.0 | 0.00 | 0.00 | 0.00 | 76 | 4237.5 |
| 20260509025413 | 21 | 150 | 0.0 | 0.0 | 0.00 | 0.00 | 0.00 | 76 | 4237.7 |
| 20260509024908 | 21 | 137 | 0.0 | 0.0 | 0.00 | 0.00 | 0.00 | 76 | 4237.4 |
| 20260509024405 | 21 | 122 | 0.0 | 0.0 | 0.00 | 0.00 | 0.00 | 76 | 4237.5 |
| 20260509023902 | 21 | 117 | 0.0 | 0.0 | 0.00 | 0.00 | 0.00 | 76 | 4237.4 |
| 20260509023359 | 21 | 114 | 0.0 | 0.0 | 0.00 | 0.00 | 0.00 | 76 | 4237.3 |
| 20260509022855 | 21 | 112 | 0.0 | 0.0 | 0.00 | 0.00 | 0.00 | 76 | 4237.0 |
| 20260509022353 | 21 | 123 | 0.0 | 0.0 | 0.00 | 0.00 | 0.00 | 76 | 4237.2 |
| 20260509021850 | 21 | 134 | 0.0 | 0.0 | 0.00 | 0.00 | 0.00 | 75 | 4237.0 |
| 20260509021347 | 21 | 141 | 0.0 | 0.0 | 0.00 | 0.00 | 0.00 | 75 | 4237.1 |
| 20260509020845 | 21 | 130 | 0.0 | 0.0 | 0.00 | 0.00 | 0.00 | 76 | 4237.0 |
| 20260509020343 | 21 | 119 | 0.0 | 0.0 | 0.00 | 0.00 | 0.00 | 76 | 4236.9 |
| 20260509015839 | 21 | 116 | 0.0 | 0.0 | 0.00 | 0.00 | 0.00 | 76 | 4237.1 |
| 20260509015338 | 21 | 111 | 0.0 | 0.0 | 0.00 | 0.00 | 0.00 | 76 | 4236.8 |
| 20260509014834 | 21 | 140 | 0.0 | 0.0 | 0.00 | 0.00 | 0.00 | 75 | 4236.6 |
| 20260509014331 | 21 | 162 | 0.0 | 0.0 | 0.00 | 0.00 | 0.00 | 75 | 4236.5 |
| 20260509013828 | 21 | 154 | 0.0 | 0.0 | 0.00 | 0.00 | 0.00 | 75 | 4236.5 |
| 20260509013324 | 21 | 124 | 0.0 | 0.0 | 0.00 | 0.00 | 0.00 | 74 | 4236.8 |
| 20260509012820 | 21 | 110 | 0.0 | 0.0 | 0.00 | 0.00 | 0.00 | 73 | 4236.6 |
| 20260509012317 | 21 | 101 | 0.0 | 0.0 | 0.00 | 0.00 | 0.00 | 73 | 4236.6 |
| 20260509011815 | 21 | 135 | 0.0 | 0.0 | 0.00 | 0.00 | 0.00 | 72 | 4236.6 |
| 20260509011312 | 22 | 156 | 0.0 | 1.6 | 0.00 | 0.00 | 0.00 | 72 | 4236.3 |
| 20260509010809 | 22 | 165 | 1.6 | 1.6 | 0.00 | 0.00 | 0.00 | 70 | 4236.3 |
| 20260509010306 | 22 | 115 | 0.0 | 0.0 | 0.00 | 0.00 | 0.00 | 69 | 4236.3 |
| 20260509005804 | 22 | 121 | 0.0 | 0.0 | 0.00 | 0.00 | 0.00 | 69 | 4236.3 |
| 20260509005305 | 22 | 117 | 0.0 | 0.0 | 0.00 | 0.00 | 0.00 | 68 | 4236.3 |
| 20260509004801 | 23 | 110 | 0.0 | 0.0 | 0.00 | 0.00 | 0.00 | 67 | 4236.1 |
| 20260509004258 | 23 | 128 | 0.0 | 0.0 | 0.00 | 0.00 | 0.00 | 67 | 4236.0 |
| 20260509003756 | 23 | 144 | 0.0 | 0.0 | 0.00 | 0.00 | 0.00 | 65 | 4236.2 |
| 20260509003254 | 23 | 137 | 0.0 | 0.0 | 0.00 | 0.00 | 0.00 | 64 | 4236.2 |
| 20260509002751 | 23 | 137 | 0.0 | 0.0 | 0.00 | 0.00 | 0.00 | 63 | 4236.3 |
| 20260509002248 | 23 | 138 | 0.0 | 0.0 | 0.00 | 0.00 | 0.00 | 62 | 4236.3 |
| 20260509001746 | 24 | 146 | 0.0 | 0.0 | 0.00 | 0.00 | 0.00 | 62 | 4236.3 |
| 20260509001241 | 24 | 146 | 0.0 | 0.0 | 0.00 | 0.00 | 0.00 | 62 | 4236.2 |
| 20260509000739 | 24 | 127 | 0.0 | 0.0 | 0.00 | 0.00 | 0.00 | 62 | 4236.4 |
| 20260509000236 | 25 | 102 | 0.0 | 1.6 | 0.00 | 0.00 | 0.00 | 61 | 4236.7 |
| 20260508235733 | 25 | 134 | 0.0 | 0.0 | 0.00 | 0.00 | 0.00 | 59 | 4236.6 |
| 20260508235230 | 25 | 136 | 0.0 | 0.0 | 0.00 | 0.00 | 0.00 | 59 | 4236.6 |
| 20260508234728 | 25 | 149 | 0.0 | 0.0 | 0.00 | 0.00 | 0.00 | 58 | 4236.6 |
| 20260508234224 | 25 | 132 | 0.0 | 0.0 | 0.00 | 0.00 | 0.00 | 59 | 4236.6 |
| 20260508233723 | 25 | 105 | 0.0 | 0.0 | 0.00 | 0.00 | 0.00 | 57 | 4236.8 |
| 20260508233221 | 25 | 168 | 0.0 | 1.6 | 0.00 | 0.00 | 0.00 | 55 | 4236.6 |
| 20260508232718 | 25 | 154 | 0.0 | 1.6 | 0.00 | 0.00 | 0.00 | 56 | 4236.4 |
| 20260508232214 | 25 | 101 | 0.0 | 1.6 | 0.00 | 0.00 | 0.00 | 58 | 4236.4 |
| 20260508231712 | 25 | 288 | 4.8 | 4.8 | 0.00 | 0.00 | 0.00 | 55 | 4235.7 |
| 20260508231209 | 25 | 126 | 4.8 | 8.0 | 0.00 | 0.00 | 0.00 | 54 | 4235.3 |
| 20260508230706 | 25 | 173 | 1.6 | 1.6 | 0.00 | 0.00 | 0.00 | 56 | 4235.4 |
| 20260508230202 | 24 | 228 | 1.6 | 1.6 | 0.00 | 0.00 | 0.00 | 59 | 4235.0 |
| 20260508225700 | 23 | 197 | 6.4 | 8.0 | 0.00 | 0.00 | 0.00 | 61 | 4235.1 |
| 20260508225156 | 23 | 67 | 4.8 | 8.0 | 0.00 | 0.00 | 0.00 | 58 | 4233.8 |
| 20260508224654 | 23 | 176 | 4.8 | 4.8 | 0.00 | 0.00 | 0.00 | 60 | 4235.3 |
| 20260508224151 | 23 | 156 | 3.2 | 3.2 | 0.00 | 0.00 | 0.00 | 59 | 4237.0 |
| 20260508223649 | 24 | 86 | 3.2 | 3.2 | 0.00 | 0.00 | 0.00 | 60 | 4237.1 |
| 20260508223146 | 25 | 166 | 1.6 | 1.6 | 0.00 | 0.00 | 0.00 | 55 | 4236.9 |
| 20260508222643 | 25 | 148 | 0.0 | 0.0 | 0.00 | 0.00 | 0.00 | 55 | 4237.1 |
| 20260508222140 | 25 | 144 | 0.0 | 0.0 | 0.00 | 0.00 | 0.00 | 55 | 4237.0 |
| 20260508221636 | 25 | 111 | 0.0 | 0.0 | 0.00 | 0.00 | 0.00 | 53 | 4237.2 |
| 20260508221132 | 25 | 148 | 1.6 | 1.6 | 0.00 | 0.00 | 0.00 | 52 | 4237.5 |
| 20260508220629 | 25 | 164 | 1.6 | 1.6 | 0.00 | 0.00 | 0.00 | 52 | 4237.8 |
| 20260508220125 | 25 | 134 | 0.0 | 1.6 | 0.00 | 0.00 | 0.00 | 53 | 4237.5 |
| 20260508215622 | 26 | 140 | 0.0 | 0.0 | 0.00 | 0.00 | 0.00 | 50 | 4237.5 |
| 20260508215119 | 26 | 145 | 0.0 | 1.6 | 0.00 | 0.00 | 0.00 | 48 | 4237.3 |
| 20260508214616 | 26 | 138 | 0.0 | 0.0 | 0.00 | 0.00 | 0.00 | 49 | 4237.2 |
| 20260508214113 | 26 | 146 | 0.0 | 1.6 | 0.00 | 0.00 | 0.00 | 44 | 4237.1 |
| 20260508213610 | 27 | 146 | 0.0 | 0.0 | 0.00 | 0.00 | 0.00 | 44 | 4237.2 |
| 20260508213106 | 27 | 164 | 1.6 | 1.6 | 0.00 | 0.00 | 0.00 | 43 | 4236.8 |
| 20260508212602 | 27 | 161 | 0.0 | 1.6 | 0.00 | 0.00 | 0.00 | 41 | 4237.2 |
| 20260508212059 | 27 | 161 | 0.0 | 0.0 | 0.00 | 0.00 | 0.00 | 44 | 4237.2 |
| 20260508211554 | 28 | 155 | 0.0 | 0.0 | 0.00 | 0.00 | 0.00 | 44 | 4237.2 |
| 20260508211051 | 28 | 137 | 0.0 | 1.6 | 0.00 | 0.00 | 0.00 | 44 | 4237.1 |
| 20260508210547 | 28 | 176 | 1.6 | 3.2 | 0.00 | 0.00 | 0.00 | 45 | 4237.3 |
| 20260508210045 | 29 | 209 | 4.8 | 4.8 | 0.00 | 0.00 | 0.00 | 40 | 4237.1 |
| 20260508205542 | 30 | 138 | 1.6 | 3.2 | 0.00 | 0.00 | 0.00 | 40 | 4237.1 |
| 20260508205038 | 30 | 292 | 3.2 | 4.8 | 0.00 | 0.00 | 0.00 | 41 | 4237.3 |
| 20260508204535 | 30 | 114 | 0.0 | 1.6 | 0.00 | 0.00 | 0.00 | 41 | 4237.3 |
| 20260508204031 | 30 | 114 | 0.0 | 1.6 | 0.00 | 0.00 | 0.00 | 41 | 4237.3 |
| 20260508203527 | 29 | 116 | 0.0 | 0.0 | 0.00 | 0.00 | 0.00 | 41 | 4237.5 |
| 20260508203023 | 29 | 132 | 1.6 | 3.2 | 0.00 | 0.00 | 0.00 | 40 | 4237.4 |
| 20260508202520 | 28 | 98 | 1.6 | 1.6 | 0.00 | 0.00 | 0.00 | 44 | 4237.7 |